Terminal Aerodrome Forecast
Issued by NWS Columbia, SC

Home | Current Version | Previous Version | Text Only | Print | Product List | Glossary On
Versions: 1 2 3 4 5 6 7 8 9 10 11 12 13 14 15 16 17 18 19 20 21 22 23 24 25 26 27 28 29 30 31 32 33 34 35 36 37 38 39 40 41 42 43 44
000
FTUS42 KCAE 270251 AAA
TAFAGS
TAF AMD
KAGS 270251Z 2703/2724 15008KT P6SM SCT120
     FM270800 VRB03KT 3SM BR SCT004 BKN012
     FM271400 20008KT P6SM BKN035
     FM271900 21007KT P6SM VCSH BKN035 BKN120=

USA.gov is the U.S. government's official web portal to all federal, state and local government web resources and services.